Погода в Репьевке

Россия / Оренбургская область     52°16′51″N   56°14′09″E
темп.,
°C
ветер,
м/с
пор.,
м/с
влажн.,
%
обл.,
%
осадки,
мм/ч
давл.,
гПа
погр.,
м
22 октября, пт
пт2223:000ююз91899100 5.6 1012774
02:00+1юз91799100 4.8 1010684
05:00+2зюз61392100 5.3 1010363
08:00+4зюз713100100 0.0 1009293
11:00+5юз61292100 0.1 1011288
14:00+8юз81473100 0.0 1011608
17:00+9юз91659100 0.0 1011507
20:00+9юз8165891 0.0 1012411
23 октября, сб
сб2323:00+8юз815605 0.0 1013361
02:00+7юз714670 0.0 1013285
05:00+6юз6137138 0.0 1014262
08:00+5юз5107386 0.0 1015227
11:00+9юз61165100 0.0 1016442
14:00+12юз71262100 0.0 1016668
17:00+11юз71166100 0.0 1017489
20:00+9юз51178100 0.0 1018203
24 октября, вс
вс2423:00+8юз3883100 0.0 1019141
02:00+8ю3383100 0.0 101828
05:00+8ююв4980100 0.0 1017214
08:00+9ю71395100 0.2 1015520
11:00+10ююз81572100 0.3 1014707
14:00+12ююз91556100 0.0 1013922
17:00+12юз81355100 0.0 1012801
20:00+8сз4694100 1.1 1013347
25 октября, пн
пн2523:00+8з2493100 3.1 1014343
02:00+8юз1292100 0.4 1013114
05:00+7з1190100 0.4 101316
08:00+7сз1191100 0.0 101310
11:00+8з1177100 0.1 1013269
14:00+8сз4569100 0.1 1012698
17:00+7сз3473100 0.5 1013719
20:00+5зсз357593 0.1 1015109
26 октября, вт
вт2623:00+3сз5108191 0.1 1015287
02:00+1с8118197 0.0 1018645
05:00−1с814765 0.0 1020677
08:00−3с613765 0.0 1023550
11:000с810595 0.0 1026663
14:00+2с79462 0.0 1026874
17:00+1с57485 0.0 1027753
20:00−1ссз22615 0.0 102926